Regional Weather Roundup
Issued by NWS Pendleton, OR

Home | Current Version | Previous Version | Text Only | Print | Product List | Glossary On
Versions: 1 2 3 4 5 6 7 8 9 10 11 12 13 14 15 16 17 18 19 20 21 22 23 24 25 26 27 28 29 30 31 32 33 34 35 36 37 38 39 40 41 42 43 44 45 46 47 48 49 50
000
ASUS46 KPDT 291010
RWRPDT
PENDLETON REGIONAL WEATHER ROUNDUP
NATIONAL WEATHER SERVICE PENDLETON OREGON
200 AM PST MON DEC 29 2014

NOTE: FAIR INDICATES FEW OR NO CLOUDS BELOW 12,000 FEET WITH NO
SIGNIFICANT WEATHER AND/OR OBSTRUCTIONS TO VISIBILITY.

# INDICATES UNOFFICIAL STATION AND DATA

WAZ520-291110-
EAST SLOPES OF WASHINGTON CASCADES

CITY            SKY/WX      TMP DP  RH  WIND    PRES   REMARKS
#BULLFROG 2SW   N/A         32  32  100 S3      27.70R
#BUMPING DAM    N/A         27  N/A N/A NE9     N/A
#CLE ELUM HS    N/A         31  29  92  CALM    30.08R
#CLE ELUM 2NW   N/A         30  30  100 CALM    N/A
#CLE ELUM LAKE  N/A         28  26  92  CALM    30.18R
#CLIFFDEL 2NW   N/A         29  28  96  W3      N/A
#GLENWOOD       N/A         29  28  96  CALM    30.14R
#MANASTASH CYN  N/A         29  25  85  CALM    30.07R
#NELSON         N/A         31  30  96  CALM    30.20R
#NELSON 3SW     N/A         28  27  96  CALM    30.40R
#NILE           N/A         31  30  96  CALM    29.41R
#PEOH POINT     N/A         24  23  96  E7      N/A
#RONALD 2NW     N/A         30  28  92  SE1     29.97R
#SNOWDEN        N/A         31  27  85  CALM    N/A
#SOUTH BLEWITT  N/A         29  28  96  CALM    N/A
#TEANAWAY 4NE   N/A         33  27  78  E1      N/A
#TROUT LAKE HS  N/A         31  31  100 CALM    N/A
#TROUT LAKE 1NE N/A         30  29  96  CALM    30.14S
$$

WAZ521-291110-
SIMCOE HIGHLANDS

CITY            SKY/WX      TMP DP  RH  WIND    PRES   REMARKS
#BICKLETON HS   N/A         28  26  92  E3      34.25S
#CENTERVILLE 4W N/A         32  30  92  CALM    29.82R
#CENTERVILLE 1SWN/A         31  28  88  CALM    30.11R
#GOLDENDALE     N/A         33  32  96  CALM    N/A
#GOLDENDALE 1NE N/A         33  32  96  CALM    N/A
#GOLDENDALE 1S  N/A         32  31  96  SW2     30.04S
#GOLDENDALE 5WNWN/A         31  29  92  W5      30.12R
#GOODNOE HILLS  N/A         35  31  85  CALM    N/A
#LYLE 6NE       N/A         33  32  96  S1      30.11R
$$

WAZ026-291110-
KITTITAS VALLEY

CITY            SKY/WX      TMP DP  RH  WIND    PRES   REMARKS
ELLENSBURG AP   CLOUDY      34  28  78  VRB3    30.13R
#ELLENSBURG CWU N/A         33  29  85  SW2     30.13R
#ELLENSBURG 3NE N/A         33  27  78  CALM    30.12R
#ELLENSBURG     N/A         35  34  96  S1      N/A
#ELLENSBURG 1E  N/A         33  27  78  SE1     N/A
#KITTITAS 4N    N/A         34  27  75  E1      28.44R
#KITTITAS 3S    N/A         33  30  89  E3      30.19R
#THORP 6N       N/A         30  27  88  N2      30.20R
$$

WAZ027-291110-
YAKIMA VALLEY

CITY            SKY/WX      TMP DP  RH  WIND    PRES   REMARKS
YAKIMA AIRPORT  CLOUDY      35  32  89  CALM    30.15R
YAKIMA-VAGABOND CLOUDY      33  30  89  E15G25  30.14R WCI 23
#DONALD 2NE     N/A         36  29  75  W3      28.98R
#GRANDVIEW      N/A         35  31  85  CALM    30.19R
#MABTON         N/A         35  33  92  E6      30.14R
#MOXEE 2E       N/A         34  32  92  CALM    30.09
#NACHES 2SW     N/A         33  32  96  CALM    30.09S
#TERRACE HTS    N/A         34  31  89  N6      30.14S
#TOPPENISH      N/A         34  32  92  CALM    30.09R
#WAPATO 4NE     N/A         36  29  75  W3      28.98R
#WEST VALLEY    N/A         35  31  85  N7      30.16R
#W YAKIMA       N/A         34  31  89  N3      30.19R
#WHITE SWAN 5E  N/A         33  32  96  CALM    30.19R
#WILEY CITY 3W  N/A         31  28  88  CALM    30.13S
$$

WAZ028-291110-
LOWER COLUMBIA BASIN...WASHINGTON

CITY            SKY/WX      TMP DP  RH  WIND    PRES   REMARKS
PASCO           MOCLDY      30  30  100 CALM    30.19R
PROSSER AWOS    N/A         36  36  100 NE9     30.19R
RICHLAND AWOS   CLOUDY      32  30  92  CALM    30.19R
#BASIN CITY 5SW N/A         32  30  92  NE5     30.17R
#BENTON CITY    N/A         34  31  89  E1      30.10R
#CONNELL 5N     N/A         30  28  92  NE5     30.21R
#CONNELL 5NW    N/A         31  29  92  E6      30.17R
#ELTOPIA        N/A         33  31  92  CALM    30.16R
#ELTOPIA 6NW    N/A         31  29  92  NE9     29.12R
#KAHLOTUS       N/A         29  27  92  S7      30.21R
#KENNEWICK      N/A         32  32  100 S3      27.70R
#KENNEWICK 3S   N/A         33  31  92  CALM    30.19R
#PASCO-BROADMOORN/A         31  27  85  CALM    30.12R
#PATERSON       N/A         36  33  89  NE3     30.14R
#PROSSER        N/A         35  32  89  E3      30.17R
#SAGEMOOR 2W    N/A         31  29  92  CALM    30.04R
#TOUCHET 2S     N/A         34  32  92  CALM    30.16R
#WEST PASCO     N/A         32  29  89  CALM    30.22R
$$

WAZ029-291110-
FOOTHILLS OF THE BLUES...WASHINGTON

CITY            SKY/WX      TMP DP  RH  WIND    PRES   REMARKS
WALLA WALLA AP  CLOUDY      36  30  79  E7      30.13S
#COLLEGE PLACE  N/A         37  29  72  W2      30.17R
#DAYTON SCHOOL  N/A         31  23  72  CALM    30.14S
#LOWDEN 2SE     N/A         33  32  96  CALM    30.13R
#PLEASANT VIEW 1N/A         28  27  96  N1      30.24S
#PRESCOTT       N/A         34  32  92  CALM    30.16S
#SUDBURY        N/A         37  N/A N/A CALM    N/A
#WHITMAN COLLEGEN/A         36  32  85  CALM    30.22R
#WAITSBURG 5S   N/A         32  29  89  NE7     30.27S
#WAITSBURG 8N   N/A         32  24  72  N5      30.09R
#WALLA WALLA 5E N/A         35  31  85  E6      N/A
#WALLA WALLA U  N/A         36  33  89  N1      30.17R
#WHITMAN MISSIONN/A         35  33  92  CALM    30.19R
$$

WAZ030-291110-
BLUE MOUNTAINS...WASHINGTON

CITY            SKY/WX      TMP DP  RH  WIND    PRES   REMARKS
#DIXIE 5SE      N/A         28  22  78  E6      29.98S
#SKI BLUEWOOD   N/A         20  18  92  CALM    30.08R
$$

ORZ009-041-WAZ024-291110-
COLUMBIA RIVER GORGE

CITY            SKY/WX      TMP DP  RH  WIND    PRES   REMARKS
THE DALLES AP   PTCLDY      34  32  92  W3      30.15R
#ARLINGTON AIRPON/A         34  33  96  NE2     30.02R
#ARLINGTON HS   N/A         36  34  92  S1      30.10
#CELILO DOT     N/A         38  33  82  S3      N/A
#LYLE           N/A         39  36  89  CALM    30.16R
#MARYHILL       N/A         36  35  96  CALM    N/A
#MARYHILL 2W    N/A         36  36  100 W1      N/A
#MOSIER 1S      N/A         35  32  89  CALM    30.12S
#MURDOCK        N/A         38  37  96  CALM    30.17R
#RUFUS DOT      N/A         N/A N/A N/A CALM    N/A

$$

ORZ510-291110-
NORTH CENTRAL OREGON

CITY            SKY/WX      TMP DP  RH  WIND    PRES   REMARKS
#CHENOWITH 1W   N/A         32  32  100 NW14    N/A    WCI 22
#COW CYN RST AREN/A         30  27  88  SW2     N/A
#DUFUR 9E       N/A         30  29  96  SW8     30.18S
#GRASS VALLEY   N/A         29  30  100 S2      N/A
#GRASS VALLEY 1SN/A         30  28  92  W2      30.16F
#KENT DOT       N/A         29  24  81  NW1     N/A
#MAUPIN SCHOOL  N/A         34  30  85  CALM    30.13R
#MORO SCHOOL    N/A         32  31  96  SW1     30.09S
#SHANIKO 5WSW   N/A         27  21  78  S5      N/A
#SHANIKO 4NW    N/A         26  24  92  W9      30.02S
#TYGH VALLEY 2NEN/A         31  29  92  CALM    30.15R
#WAPANITIA AIRPON/A         33  29  85  W1      30.16R
#WASCO DOT      N/A         33  31  92  W1      N/A
#WASCO 5NE      N/A         33  31  92  CALM    30.14R
$$

ORZ511-291110-
CENTRAL OREGON

CITY            SKY/WX      TMP DP  RH  WIND    PRES   REMARKS
BEND AIRPORT    LGT RAIN    32  23  69  SW9     30.06S
MADRAS AIRPORT  LGT SNOW    32  28  85  CALM    30.10R
PRINEVILLE AP   LGT MXD PCP 32  25  75  SW7     30.07R
REDMOND AIRPORT CLOUDY      29  24  81  SW3     30.07R
#BEND 1SW       N/A         28  25  88  SW3     N/A
#BEND-AWBREY    N/A         29  26  88  SW8     30.15R
#BEND-KIM LN    N/A         30  26  85  SW3     30.01S
#CROOKED RVR RANN/A         32  29  89  W23     30.14R WCI 19
#CULVER         N/A         32  27  82  S1      30.04R
#LAKE BILLY CHINN/A         32  28  85  SE3     30.18S
#POWELL BUTTE 3EN/A         31  23  72  W3      N/A
#POWELL BUTTE   N/A         31  25  78  W5      29.68S
#PRINEVILLE 3N  N/A         30  28  92  CALM    30.11R
#WARM SPRINGS   N/A         30  28  92  CALM    30.09R


ORZ509-291110-
EAST SLOPES OF OREGON CASCADES

CITY            SKY/WX      TMP DP  RH  WIND    PRES   REMARKS
#BLUE BOX PASS  N/A         26  -21 11  NW6     N/A
#CAMP SHERMAN   N/A         33  31  92  CALM    30.14F
#LA PINE DOT    N/A         28  19  68  S5      N/A
#LA PINE 4NW    N/A         27  21  78  CALM    30.21S
#LAVA BUTTE DOT N/A         25  21  84  SE2     N/A
#MT BACHELOR-MIDN/A         16  14  92  E20G33  N/A    WCI -1
#SISTERS AIRPOR N/A         30  30  100 CALM    30.17S
#SISTERS ODOT   N/A         30  N/A N/A CALM    N/A
#SISTERS 3N     N/A         30  24  78  CALM    30.07R
#SUNRIVER       N/A         28  25  88  S2      30.05S
#TUMALO 3W      N/A         28  22  78  SW1     30.03S
#WANOGA BUTTE D N/A         21  18  88  W7      N/A

$$

ORZ044-291110-
LOWER COLUMBIA BASIN...OREGON

CITY            SKY/WX      TMP DP  RH  WIND    PRES   REMARKS
HERMISTON       MOCLDY      35  32  89  SE7     30.13S
#BOARDMAN 3W    N/A         35  34  96  CALM    29.88R
#BOARDMAN 8SW   N/A         35  33  92  CALM    30.16R
#ECHO 8SW       N/A         36  31  82  E1      30.11R
#IONE SCHOOL    N/A         33  23  66  SW8     30.11R
#IRRIGON 4NW    N/A         38  38  100 E7      N/A
#UMATILLA SCHOOLN/A         32  32  100 SE6     30.21R
#UMATILLA       N/A         36  32  85  CALM    30.12S
$$

ORZ507-291110-
NORTHERN FOOTHILLS OF THE BLUES

CITY            SKY/WX      TMP DP  RH  WIND    PRES   REMARKS
PENDLETON AIRPT HVY SNOW    32  31  96  SE5     30.10R VSB 1/4
#ADAMS 3WNW     N/A         30  28  92  E1      30.15R
#ATHENA         N/A         31  30  96  CALM    30.18R
#CAYUSE         N/A         33  31  92  W5      30.15R
#HELIX SCHOOL   N/A         30  28  92  CALM    30.16R
#HELIX 3N       N/A         29  28  96  CALM    30.05R
#HOLDMAN 5SE    N/A         33  31  92  CALM    30.11R
#HOLDMAN 6E     N/A         31  29  92  CALM    29.96R
#M-F GROVE ELEM N/A         34  29  82  CALM    30.10S
#M-FREEWATER 5SEN/A         34  31  89  CALM    30.11R
#PENDLETON DNTN N/A         34  28  78  CALM    28.94R
#PDT AQUATIC CTRN/A         35  30  82  CALM    30.09S
#PENDLETON 5NE  N/A         32  31  96  CALM    30.06R
#PDT SUNRIDGE   N/A         33  32  96  CALM    30.13R
#PENDLETON 7NW  N/A         34  30  85  CALM    27.59R
#PILOT ROCK     N/A         32  26  78  CALM    30.11R
#TUTUILLA       N/A         33  31  92  S2      30.15R
#UMAPINE 2E     N/A         35  33  92  N1      30.12R
#WESTON SCHOOL  N/A         30  27  88  CALM    30.07R

$$

ORZ508-291110-
SOUTHERN FOOTHILLS OF THE BLUES

CITY            SKY/WX      TMP DP  RH  WIND    PRES   REMARKS
LEXINGTON       LGT SNOW    34  34  100 CALM    30.11S
#AJAX           N/A         31  25  78  CALM    30.00S
#CONDON SCHOOL  N/A         30  29  96  CALM    30.01R
#CONDON 5W      N/A         28  26  92  W9      30.01R
#FOSSIL SCHOOL  N/A         34  27  75  W3      30.03R
#HEPPNER EOC    N/A         33  31  92  CALM    30.09R
#HEPPNER 4NE    N/A         30  28  92  SW2     30.13S
#LEXINGTON 2SE  N/A         34  31  89  CALM    30.07R
#MIKKALO        N/A         33  30  89  S1      30.09S
#RUGGS 5NE      N/A         30  26  85  W3      30.20R
#RUGGS 2SW      N/A         30  28  92  W10     30.15S

$$

ORZ502-503-291110-
BLUE MOUNTAINS

CITY            SKY/WX      TMP DP  RH  WIND    PRES   REMARKS
MEACHAM         CLOUDY      27  25  92  CALM    30.01R
#BATTLE MTN DOT N/A         25  25  100 S1      N/A
#HARDMAN 10S    N/A         24  22  92  CALM    30.27S
#HEPPNER 15SE   N/A         26  24  92  CALM    29.91R
#LADD CYN SMT   N/A         18  15  88  SE9     N/A
#LADD CREEK ODOTN/A         23  22  96  CALM    N/A
#LONG CREEK HS  N/A         26  26  100 CALM    29.98S
#N POWDER DOT   N/A         24  24  100 SW2     N/A
#PIKES PEAK     N/A         25  24  96  CALM    27.99S
#TOLLGATE       N/A         22  21  96  CALM    29.90S
#TROY SCHOOL    N/A         31  30  96  CALM    30.06R
#UKIAH          N/A         27  25  92  CALM    30.19R
#WESTON 4E      N/A         26  25  96  E7      30.10S
$$

ORZ505-291110-
JOHN DAY BASIN

CITY            SKY/WX      TMP DP  RH  WIND    PRES   REMARKS
JOHN DAY        CLOUDY      26  25  96  E8      30.05S
#JOHN DAY KJDY  N/A         26  26  100 CALM    30.14R
#DAYVILLE SCHOOLN/A         32  29  89  CALM    30.16S
#MONUMENT HS    N/A         29  26  88  CALM    30.09S
#MT. VERNON 5SE N/A         24  22  92  CALM    29.98S
#WINLOCK        N/A         30  28  92  CALM    30.12S
$$

ORZ506-291110-
OCHOCO AND JOHN DAY HIGHLANDS

CITY            SKY/WX      TMP DP  RH  WIND    PRES   REMARKS
#BUCK CREEK DOT N/A         28  27  96  SW9     N/A
#HORSE RIDGE DO N/A         29  20  69  SW15    N/A    WCI 18
#KEYES SMT DOT  N/A         26  25  96  NW5     N/A
#PAULINA SCHOOL N/A         N/A N/A N/A CALM    30.03R
#PRAIRIE CITY   N/A         20  15  81  CALM    30.31R
#SENECA         N/A         20  N/A N/A CALM    N/A
#SENECA 9NW     N/A         19  18  96  CALM    30.17S
$$

ORZ049-291110-
GRANDE RONDE VALLEY

CITY            SKY/WX      TMP DP  RH  WIND    PRES   REMARKS
LA GRANDE       MOCLDY      25  18  74  SE3     30.06S
#COVE           N/A         21  16  81  CALM    30.03S
#COVE SCHOOL    N/A         22  20  92  CALM    30.04R
#COVE 6NW       N/A         18  16  92  CALM    30.23S
#ELGIN 1E       N/A         29  25  85  CALM    N/A
#ISLAND CITY 4N N/A         37  37  100 CALM    30.14F
#LADD CYN DOT   N/A         27  23  85  SE10    N/A
#UNION 1S       N/A         28  24  85  SE6     30.10R
$$

ORZ050-291110-
WALLOWA COUNTY

CITY            SKY/WX      TMP DP  RH  WIND    PRES   REMARKS
#ENTERPRISE AP  N/A         17  13  84  CALM    29.97S
#ENTERPRISE HS  N/A         16  14  92  CALM    30.06S
#IMNAHA SCHOOL  N/A         31  26  81  SE2     30.11S
#IMNAHA 10S     N/A         25  22  88  SW1     30.07R
#JOSEPH 3N      N/A         12   8  84  CALM    30.05R
#JOSEPH 3W      N/A         18  12  77  CALM    29.85R
#LOSTINE        N/A         19  17  92  CALM    30.00R
#MT HOWARD 8000 N/A         10   7  87  CALM    29.78S
#PROMISE 1S     N/A         23  21  92  CALM    30.30R
#SHEEP RDG 7000 N/A         13  11  91  CALM    30.22R
#WALLOWA SCHOOL N/A         23  21  92  CALM    31.18R



$$



USA.gov is the U.S. government's official web portal to all federal, state and local government web resources and services.